Погода в Чарлстоне

США     38°20′51″N   81°37′42″W
темп.,
°C
ветер,
м/с
пор.,
м/с
влажн.,
%
обл.,
%
осадки,
мм/ч
давл.,
гПа
погр.,
м
17 октября, вс
вс1723:00+7зюз27775 0.0 1019162
02:00+7зюз38775 0.0 1020246
05:00+5зюз26882 0.0 1020142
08:00+4юз28895 0.0 1021204
11:00+12з47492 0.0 1021809
14:00+16зсз58365 0.0 10191926
17:00+16зсз48405 0.0 10191997
20:00+9зюз29652 0.0 1020168
18 октября, пн
пн1823:00+7зюз210760 0.0 1021218
02:00+6юз28870 0.0 1022184
05:00+5юз27920 0.0 1022143
08:00+4юз28930 0.0 1023169
11:00+13зюз36550 0.0 1023611
14:00+18з46380 0.0 10201366
17:00+18зсз35410 0.0 10201426
20:00+11юз11670 0.0 102110
19 октября, вт
вт1923:00+9ююз22780 0.0 102316
02:00+8ююз22870 0.0 102315
05:00+7ююз11900 0.0 102413
08:00+7ююз11900 0.0 102517
11:00+16юз23540 0.0 1024526
14:00+20зюз23383 0.0 10221204
17:00+20з2340100 0.0 10211146
20:00+12ююз1166100 0.0 102210
20 октября, ср
ср2023:00+11ю117083 0.0 102210
02:00+9ююз11760 0.0 102311
05:00+8ююз11810 0.0 102411
08:00+7ююз22860 0.0 102524
11:00+16юз24550 0.0 1024551
14:00+21зюз34370 0.0 10221207
17:00+21зюз24410 0.0 10201158
20:00+13ю22650 0.0 102012
21 октября, чт
чт2123:00+12ю22705 0.0 102032
02:00+13ююз2467100 0.0 102090
05:00+13ю256921 0.0 1019129
08:00+10ю247681 0.0 101976
11:00+19ююз51057100 0.0 1017649
14:00+19юз4127563 1.1 10141054
17:00+19зюз51282100 1.4 10131312
20:00+15з6128910 3.1 10151023